www.pogodaiklimat.ru

ПОГОДА в Падьюке, KY

  • Прогноз погоды в Падьюке
  • Монитор погоды в Падьюке
  • Климат в Падьюке

АРХИВ ПОГОДЫ в Падьюке

Время (UTC), дата Ветер
(напр.,м/с)
 
Видим.   Явления Облачность Т
(С)
Тd
(С)
f
(%)
Тe
(С)
Тes
(С)
Комфортность

P
(гПа)

Po
(гПа)
Тmin
(С)
Tmax
(С)
R
(мм)
SD
(см)
07:53 25.03 З  13 км    2/2 1800 м  +13.3  +11.7  90  +12  +12    1011.9  997.2         
08:53 25.03 З  10 км  дымка  10/10 390 м  +13.3  +12.2  93  +12  +12    1012.4  997.5         
09:05 25.03 СЗ  10 км  дымка  10/10 270 м  +13.9  +12.2  89  +12  +12      997.8         
09:28 25.03 СЗ  11 км    10/10 270 м  +13.9  +12.2  89  +13  +13      998.2         
09:53 25.03 СЗ  13 км    8/8 570 м  +13.3  +11.7  90  +13  +13    1013.1  998.2         
10:53 25.03 СЗ  11 км    10/10 600 м  +13.3  +11.1  87  +12  +12    1013.9  999.2  +12.2  +15.6     
11:32 25.03 З  6 км  дымка  5/5 660 м  +12.8  +10.6  86  +11  +11      999.5         
11:53 25.03 СЗ  6 км  дымка  2/0 2100 м
[средняя] 
+12.8  +10.6  86  +11  +11    1014.5  999.5         
12:24 25.03 С  8 км  дымка  8/8 300 м
[средняя] 
+13.3  +11.1  87  +11  +12      999.8         
12:53 25.03 С  13 км    10/10 300 м  +12.8  +10.6  86  +10  +10    1015.0  1000.2         
13:35 25.03 С  5
{10} 
16 км    10/10 420 м  +12.8  +9.4  80  +10  +10      1000.8         
13:53 25.03 С  7
{10} 
16 км    10/10 390 м  +12.2  +9.4  83  +9  +9    1015.8  1000.8         
14:53 25.03 С  14 км    10/10 360 м  +12.2  +8.9  80  +9  +9    1016.8  1001.8         
15:53 25.03 С  5
{11} 
13 км    10/10 390 м  +11.1  +8.3  83  +8  +8    1017.4  1002.5         
16:53 25.03 С  13 км    10/10 330 м  +11.1  +7.8  80  +8  +8    1018.0  1003.2  +11.1  +13.3     
17:08 25.03 С  13 км    10/10 240 м  +10.6  +7.8  83  +7  +7      1003.2         
17:53 25.03 С  8
{11} 
13 км    10/10 270 м  +10.0  +6.7  80  +6  +6    1018.5  1003.5         
18:20 25.03 С  14 км    10/10 300 м  +10.0  +6.7  80  +6  +6      1003.8         
18:53 25.03 С  10 км  мгла  10/10 300 м  +9.4  +6.1  80  +5  +5    1019.1  1004.2         
19:53 25.03 С  10 км  мгла  10/10 360 м  +9.4  +6.1  80  +6  +6    1019.4  1004.5         
20:53 25.03 С  11 км    10/10 450 м  +10.0  +6.1  77  +6  +6    1019.9  1004.8         
21:53 25.03 С  11 км    10/10 510 м  +9.4  +5.6  77  +6  +6    1020.6  1005.5         
22:53 25.03 С  6
{9} 
14 км    10/10 660 м  +9.4  +5.0  74  +6  +6    1021.5  1006.5  +9.4  +10.0     
23:53 25.03 С  16 км    10/10 750 м  +10.0  +5.0  71  +7  +7    1022.1  1007.2         
00:53 26.03 С  7
{11} 
16 км    10/10 810 м  +8.9  +3.9  71  +5  +5    1022.9  1007.8         
01:00 26.03 С  6
{10} 
16 км    10/10 930 м  +8.9  +3.9  71  +5  +5      1007.8         
01:53 26.03 С  16 км    10/10 1020 м  +8.9  +3.3  68  +6  +6    1023.8  1008.5         
02:53 26.03 С  16 км    10/10 1140 м  +8.9  +3.3  68  +6  +6    1024.1  1008.8         
03:53 26.03 С  16 км    10/10 1260 м  +8.9  +3.3  68  +5  +5    1024.1  1008.8         
04:53 26.03 С  16 км    10/10 1260 м  +7.8  +3.3  73  +4  +4    1024.2  1008.8  +7.8  +10.0     
05:53 26.03 С  16 км    8/8 1260 м  +7.8  +2.8  71  +4  +4    1024.6  1009.5         
06:53 26.03 С  16 км    10/10 1320 м  +7.8  +2.8  71  +4  +4    1024.9  1009.5         
07:53 26.03 С  16 км    10/10 1440 м  +7.2  +2.8  74  +4  +4    1024.8  1009.5         
08:53 26.03 С  16 км    8/8 1500 м  +5.6  +2.2  79  +2  +2    1025.3  1010.2         
09:53 26.03 СВ  16 км    10/10 1500 м  +5.6  +1.1  73  +1  +1    1025.9  1010.8         
10:53 26.03 СВ  16 км    ясно  +4.4  -4.4  53  +1  +1    1026.7  1011.5  +4.4  +7.8     
11:53 26.03 СВ  16 км    ясно  +5.6  -3.9  50  +2  +2    1027.7  1012.5         
12:53 26.03 В  16 км    ясно  +7.2  -5.0  42  +3  +4    1028.2  1012.8         
13:53 26.03 В  16 км    ясно  +8.3  -5.6  37  +5  +6    1028.5  1013.2         
14:53 26.03 СВ  7
{10} 
16 км    ясно  +8.9  -6.1  34  +5  +7    1028.6  1013.2         
15:53 26.03 СВ  7
{10} 
16 км    ясно  +10.6  -6.7  29  +7  +9    1028.6  1013.2         
16:53 26.03 СВ  7
{10} 
16 км    ясно  +11.7  -6.7  27  +9  +12    1028.2  1012.8  +4.4  +11.7     
17:53 26.03 СВ  5
{10} 
16 км    ясно  +12.8  -7.8  23  +11  +16    1027.6  1012.2         
18:53 26.03 В  16 км    ясно  +13.3  -8.3  21  +12  +23  опасность
простуды 
1027.1  1011.8         
19:53 26.03 С  6
{8} 
16 км    ясно  +13.9  -7.2  22  +12  +15    1026.9  1011.5         
20:53 26.03 С  16 км    ясно  +13.3  -7.2  23  +11  +14    1026.8  1011.5         
21:53 26.03 С  16 км    ясно  +12.2  -6.7  26  +10  +10    1026.9  1011.8         
22:53 26.03 СВ  16 км    ясно  +10.0  -5.6  33  +8  +8    1026.9  1011.5  +10.0  +13.9     

 

Местоположение метеостанции Barkley Regional Airport: широта 37.0564 долгота -88.7739 высота над уровнем моря 125 м.

В архиве по умолчанию представлена погода в Падьюке за последние 1-2 суток. Обновление информации о фактической погоде в базе происходит ежечасно! Архивные данные за месяц целиком и за предыдущие месяцы Вы можете получить, выбрав интересующий диапазон дат из раскрывающегося списка и нажав кнопку "Ввод!".

Внимание! Архив погоды МЕТАР в базе сайта хранится не более 60 дней. Нет смысла пытаться выбрать более раннюю дату.

Внимание! Время в таблицах - всемирное. Для получения местного времени необходимо прибавить поправку, которая в Падьюке равна -6 ч.

Ветер - указаны скорость ветра в м/с и направление, откуда дует ветер: С - северный, СВ - северо-восточный, В - восточный, ЮВ - юго-восточный, Ю - южный, ЮЗ - юго-западный, З - западный, СЗ - северо-западный.
Видимость - горизонтальная дальность видимости в метрах или километрах. При видимости от 1 до 10 км при отсутствии осадков обычно наблюдается дымка, при ухудшении видимости до 1 км и менее - туман. В сухую погоду видимость может ухудшаться дымом, пылью или мглою.
Атмосферные явления - указаны явления, наблюдавшиеся в указанный момент времени.
Облачность - указаны через наклонную черту верхняя и нижняя облачность в баллах и высота нижней границы облаков в метрах. Внимание: облачность, как и прочие метеорологические величины в США измеряются автоматическими метеостанциями. Указанные значения в баллах носят условный характер и показывают процент времени, в течение которого, в среднем, лазерный луч высотомера отражался от облаков обратно.
T - Температура воздуха - температура, измеренная на высоте 2 м над землей.
Td - Температура точки росы - температура, при понижении до которой содержащийся в воздухе водяной пар достигнет насыщения.
f - Относительная влажность воздуха - влажноcть воздуха, измеренная на высоте 2 м над землей.
Te - Эффективная температура - температура, которую ощущает одетый по сезону человек в тени. Характеристика душности погоды. При расчете учитывается влияние влажности воздуха и скорости ветра на теплоощущения человека.
Tes - Эффективная температура на солнце - температура, которую ощущает человек, с поправкой на солнечный нагрев. Характеристика знойности погоды. Зависит от высоты солнца над горизонтом, облачности и скорости ветра. Ночью, в пасмурную погоду, а также при ветре 12 м/с и более поправка равна нулю.
P - Атмосферное давление - приведенное к уровню моря атмосферное давление.
Po - Атмосферное давление - измеренное на уровне метеостанции атмосферное давление.
Tmin - Минимальная температура - минимум температуры воздуха на высоте 2 м над землей.
Tmax - Максимальная температура - максимум температуры воздуха на высоте 2 м над землей.
R - Количество осадков - Количество выпавших осадков за 3 или 6 часов, мм.
SD - Снежный покров - Высота снежного покрова, см.